Location: Poughquag
(41.6090°N, 73.6820°W)
Time: 13:50:10
(UTC-04:00)

Vanguard 3 - Pass Details

Date: 05 June 2020
Orbit: 510 x 3261 km, 33.3° (Epoch: 05 July)

Event Time Altitude Azimuth Distance (km) Brightness Sun altitude
Exits shadow 02:52:14 19° 233° (SW) 5,346 10.7 -20.1°
Maximum altitude 03:06:38 56° 167° (SSE) 3,069 9.7 -18.8°
Drops below altitude 10° 03:19:07 10° 94° (E) 4,340 11.3 -17.5°
Sets 03:21:59 0° 90° (E) 5,022 11.7 -17.1°
